Year,Month,Day,Hour,Minute,Value (Times are PST for temperature in C)
2010,10,02,00,00,15.50
2010,10,02,00,01,15.50
2010,10,02,00,02,15.50
2010,10,02,00,03,15.50
2010,10,02,00,04,15.50
2010,10,02,00,05,15.50
2010,10,02,00,06,15.50
2010,10,02,00,07,15.50
2010,10,02,00,08,15.50
2010,10,02,00,09,15.50
2010,10,02,00,10,15.50
2010,10,02,00,11,15.50
2010,10,02,00,12,15.50
2010,10,02,00,13,15.50
2010,10,02,00,14,15.50
2010,10,02,00,15,15.50
2010,10,02,00,16,15.50
2010,10,02,00,17,15.40
2010,10,02,00,18,15.40
2010,10,02,00,19,15.40
2010,10,02,00,20,15.40
2010,10,02,00,21,15.40
2010,10,02,00,22,15.40
2010,10,02,00,23,15.40
2010,10,02,00,24,15.40
2010,10,02,00,25,15.40
2010,10,02,00,26,15.40
2010,10,02,00,27,15.40
2010,10,02,00,28,15.40
2010,10,02,00,29,15.40
2010,10,02,00,30,15.40
2010,10,02,00,31,15.40
2010,10,02,00,32,15.40
2010,10,02,00,33,15.40
2010,10,02,00,34,15.40
2010,10,02,00,35,15.40
2010,10,02,00,36,15.40
2010,10,02,00,37,15.40
2010,10,02,00,38,15.40
2010,10,02,00,39,15.40
2010,10,02,00,40,15.40
2010,10,02,00,41,15.30
2010,10,02,00,42,15.30
2010,10,02,00,43,15.30
2010,10,02,00,44,15.30
2010,10,02,00,45,15.30
2010,10,02,00,46,15.30
2010,10,02,00,47,15.10
2010,10,02,00,48,14.80
2010,10,02,00,49,14.50
2010,10,02,00,50,14.20
2010,10,02,00,51,13.90
2010,10,02,00,52,13.70
2010,10,02,00,53,13.60
2010,10,02,00,54,13.50
2010,10,02,00,55,13.40
2010,10,02,00,56,13.30
2010,10,02,00,57,13.30
2010,10,02,00,58,13.20
2010,10,02,00,59,13.20
2010,10,02,01,00,13.10
2010,10,02,01,01,13.00
2010,10,02,01,02,13.00
2010,10,02,01,03,13.00
2010,10,02,01,04,12.90
2010,10,02,01,05,12.90
2010,10,02,01,06,12.90
2010,10,02,01,07,12.90
2010,10,02,01,08,12.80
2010,10,02,01,09,12.80
2010,10,02,01,10,12.80
2010,10,02,01,11,12.80
2010,10,02,01,12,12.80
2010,10,02,01,13,12.80
2010,10,02,01,14,12.70
2010,10,02,01,15,12.70
2010,10,02,01,16,12.60
2010,10,02,01,17,12.60
2010,10,02,01,18,12.60
2010,10,02,01,19,12.60
2010,10,02,01,20,12.60
2010,10,02,01,21,12.60
2010,10,02,01,22,12.60
2010,10,02,01,23,12.70
2010,10,02,01,24,12.70
2010,10,02,01,25,12.60
2010,10,02,01,26,12.60
2010,10,02,01,27,12.60
2010,10,02,01,28,12.60
2010,10,02,01,29,12.60
2010,10,02,01,30,12.50
2010,10,02,01,31,12.50
2010,10,02,01,32,12.50
2010,10,02,01,33,12.50
2010,10,02,01,34,12.50
2010,10,02,01,35,12.40
2010,10,02,01,36,12.40
2010,10,02,01,37,12.40
2010,10,02,01,38,12.40
2010,10,02,01,39,12.40
2010,10,02,01,40,12.40
2010,10,02,01,41,12.40
2010,10,02,01,42,12.40
2010,10,02,01,43,12.40
2010,10,02,01,44,12.40
2010,10,02,01,45,12.40
2010,10,02,01,46,12.40
2010,10,02,01,47,12.40
2010,10,02,01,48,12.40
2010,10,02,01,49,12.40
2010,10,02,01,50,12.40
2010,10,02,01,51,12.40
2010,10,02,01,52,12.40
2010,10,02,01,53,12.40
2010,10,02,01,54,12.40
2010,10,02,01,55,12.40
2010,10,02,01,56,12.40
2010,10,02,01,57,12.40
2010,10,02,01,58,12.40
2010,10,02,01,59,12.40
2010,10,02,02,00,12.30
2010,10,02,02,01,12.30
2010,10,02,02,02,12.30
2010,10,02,02,03,12.30
2010,10,02,02,04,12.30
2010,10,02,02,05,12.30
2010,10,02,02,06,12.30
2010,10,02,02,07,12.30
2010,10,02,02,08,12.30
2010,10,02,02,09,12.30
2010,10,02,02,10,12.30
2010,10,02,02,11,12.30
2010,10,02,02,12,12.30
2010,10,02,02,13,12.30
2010,10,02,02,14,12.30
2010,10,02,02,15,12.30
2010,10,02,02,16,12.30
2010,10,02,02,17,12.30
2010,10,02,02,18,12.30
2010,10,02,02,19,12.30
2010,10,02,02,20,12.30
2010,10,02,02,21,12.30
2010,10,02,02,22,12.30
2010,10,02,02,23,12.30
2010,10,02,02,24,12.30
2010,10,02,02,25,12.30
2010,10,02,02,26,12.30
2010,10,02,02,27,12.30
2010,10,02,02,28,12.30
2010,10,02,02,29,12.30
2010,10,02,02,30,12.30
2010,10,02,02,31,12.30
2010,10,02,02,32,12.30
2010,10,02,02,33,12.30
2010,10,02,02,34,12.30
2010,10,02,02,35,12.30
2010,10,02,02,36,12.30
2010,10,02,02,37,12.30
2010,10,02,02,38,12.30
2010,10,02,02,39,12.30
2010,10,02,02,40,12.30
2010,10,02,02,41,12.30
2010,10,02,02,42,12.30
2010,10,02,02,43,12.30
2010,10,02,02,44,12.30
2010,10,02,02,45,12.30
2010,10,02,02,46,12.30
2010,10,02,02,47,12.30
2010,10,02,02,48,12.30
2010,10,02,02,49,12.30
2010,10,02,02,50,12.30
2010,10,02,02,51,12.30
2010,10,02,02,52,12.30
2010,10,02,02,53,12.30
2010,10,02,02,54,12.30
2010,10,02,02,55,12.30
2010,10,02,02,56,12.30
2010,10,02,02,57,12.30
2010,10,02,02,58,12.30
2010,10,02,02,59,12.30
2010,10,02,03,00,12.30
2010,10,02,03,01,12.30
2010,10,02,03,02,12.40
2010,10,02,03,03,12.40
2010,10,02,03,04,12.40
2010,10,02,03,05,12.40
2010,10,02,03,06,12.40
2010,10,02,03,07,12.40
2010,10,02,03,08,12.40
2010,10,02,03,09,12.50
2010,10,02,03,10,12.50
2010,10,02,03,11,12.50
2010,10,02,03,12,12.50
2010,10,02,03,13,12.50
2010,10,02,03,14,12.50
2010,10,02,03,15,12.50
2010,10,02,03,16,12.50
2010,10,02,03,17,12.50
2010,10,02,03,18,12.50
2010,10,02,03,19,12.50
2010,10,02,03,20,12.50
2010,10,02,03,21,12.50
2010,10,02,03,22,12.60
2010,10,02,03,23,12.60
2010,10,02,03,24,12.70
2010,10,02,03,25,12.70
2010,10,02,03,26,12.80
2010,10,02,03,27,12.80
2010,10,02,03,28,12.80
2010,10,02,03,29,12.80
2010,10,02,03,30,12.80
2010,10,02,03,31,12.80
2010,10,02,03,32,12.80
2010,10,02,03,33,12.80
2010,10,02,03,34,12.80
2010,10,02,03,35,12.80
2010,10,02,03,36,12.90
2010,10,02,03,37,12.90
2010,10,02,03,38,12.90
2010,10,02,03,39,13.00
2010,10,02,03,40,13.00
2010,10,02,03,41,13.10
2010,10,02,03,42,13.10
2010,10,02,03,43,13.20
2010,10,02,03,44,13.30
2010,10,02,03,45,13.30
2010,10,02,03,46,13.30
2010,10,02,03,47,13.40
2010,10,02,03,48,13.50
2010,10,02,03,49,13.60
2010,10,02,03,50,13.60
2010,10,02,03,51,13.70
2010,10,02,03,52,13.70
2010,10,02,03,53,13.70
2010,10,02,03,54,13.80
2010,10,02,03,55,13.80
2010,10,02,03,56,13.80
2010,10,02,03,57,13.90
2010,10,02,03,58,13.90
2010,10,02,03,59,13.90
2010,10,02,04,00,13.90
2010,10,02,04,01,14.00
2010,10,02,04,02,14.00
2010,10,02,04,03,14.00
2010,10,02,04,04,14.00
2010,10,02,04,05,14.00
2010,10,02,04,06,14.00
2010,10,02,04,07,14.00
2010,10,02,04,08,14.10
2010,10,02,04,09,14.10
2010,10,02,04,10,14.10
2010,10,02,04,11,14.10
2010,10,02,04,12,14.10
2010,10,02,04,13,14.10
2010,10,02,04,14,14.10
2010,10,02,04,15,14.20
2010,10,02,04,16,14.20
2010,10,02,04,17,14.20
2010,10,02,04,18,14.20
2010,10,02,04,19,14.10
2010,10,02,04,20,14.10
2010,10,02,04,21,14.10
2010,10,02,04,22,14.10
2010,10,02,04,23,14.10
2010,10,02,04,24,14.10
2010,10,02,04,25,14.10
2010,10,02,04,26,14.10
2010,10,02,04,27,14.10
2010,10,02,04,28,14.20
2010,10,02,04,29,14.20
2010,10,02,04,30,14.20
2010,10,02,04,31,14.20
2010,10,02,04,32,14.20
2010,10,02,04,33,14.20
2010,10,02,04,34,14.20
2010,10,02,04,35,14.20
2010,10,02,04,36,14.20
2010,10,02,04,37,14.10
2010,10,02,04,38,14.10
2010,10,02,04,39,14.10
2010,10,02,04,40,14.10
2010,10,02,04,41,14.10
2010,10,02,04,42,14.10
2010,10,02,04,43,14.10
2010,10,02,04,44,14.10
2010,10,02,04,45,14.00
2010,10,02,04,46,14.00
2010,10,02,04,47,14.00
2010,10,02,04,48,14.00
2010,10,02,04,49,14.00
2010,10,02,04,50,14.00
2010,10,02,04,51,14.00
2010,10,02,04,52,14.00
2010,10,02,04,53,14.00
2010,10,02,04,54,14.00
2010,10,02,04,55,14.00
2010,10,02,04,56,14.00
2010,10,02,04,57,14.00
2010,10,02,04,58,14.00
2010,10,02,04,59,14.00
2010,10,02,05,00,14.00
2010,10,02,05,01,13.90
2010,10,02,05,02,13.90
2010,10,02,05,03,13.90
2010,10,02,05,04,13.90
2010,10,02,05,05,13.90
2010,10,02,05,06,13.90
2010,10,02,05,07,13.90
2010,10,02,05,08,13.90
2010,10,02,05,09,13.90
2010,10,02,05,10,13.90
2010,10,02,05,11,13.90
2010,10,02,05,12,13.90
2010,10,02,05,13,13.90
2010,10,02,05,14,13.90
2010,10,02,05,15,13.90
2010,10,02,05,16,13.90
2010,10,02,05,17,13.90
2010,10,02,05,18,13.90
2010,10,02,05,19,13.90
2010,10,02,05,20,13.90
2010,10,02,05,21,13.90
2010,10,02,05,22,13.90
2010,10,02,05,23,13.90
2010,10,02,05,24,13.90
2010,10,02,05,25,13.90
2010,10,02,05,26,13.90
2010,10,02,05,27,13.90
2010,10,02,05,28,13.90
2010,10,02,05,29,13.90
2010,10,02,05,30,13.90
2010,10,02,05,31,13.90
2010,10,02,05,32,13.90
2010,10,02,05,33,13.90
2010,10,02,05,34,13.90
2010,10,02,05,35,13.90
2010,10,02,05,36,13.90
2010,10,02,05,37,13.90
2010,10,02,05,38,13.90
2010,10,02,05,39,13.80
2010,10,02,05,40,13.80
2010,10,02,05,41,13.70
2010,10,02,05,42,13.70
2010,10,02,05,43,13.70
2010,10,02,05,44,13.70
2010,10,02,05,45,13.70
2010,10,02,05,46,13.70
2010,10,02,05,47,13.70
2010,10,02,05,48,13.70
2010,10,02,05,49,13.70
2010,10,02,05,50,13.70
2010,10,02,05,51,13.60
2010,10,02,05,52,13.60
2010,10,02,05,53,13.50
2010,10,02,05,54,13.40
2010,10,02,05,55,13.30
2010,10,02,05,56,13.30
2010,10,02,05,57,13.30
2010,10,02,05,58,13.20
2010,10,02,05,59,13.10
2010,10,02,06,00,13.10
2010,10,02,06,01,13.10
2010,10,02,06,02,13.00
2010,10,02,06,03,13.00
2010,10,02,06,04,13.00
2010,10,02,06,05,12.90
2010,10,02,06,06,12.80
2010,10,02,06,07,12.80
2010,10,02,06,08,12.70
2010,10,02,06,09,12.60
2010,10,02,06,10,12.60
2010,10,02,06,11,12.50
2010,10,02,06,12,12.50
2010,10,02,06,13,12.40
2010,10,02,06,14,12.40
2010,10,02,06,15,12.30
2010,10,02,06,16,12.30
2010,10,02,06,17,12.30
2010,10,02,06,18,12.30
2010,10,02,06,19,12.30
2010,10,02,06,20,12.20
2010,10,02,06,21,12.20
2010,10,02,06,22,12.20
2010,10,02,06,23,12.10
2010,10,02,06,24,12.10
2010,10,02,06,25,12.00
2010,10,02,06,26,12.00
2010,10,02,06,27,12.00
2010,10,02,06,28,11.90
2010,10,02,06,29,11.90
2010,10,02,06,30,11.90
2010,10,02,06,31,11.90
2010,10,02,06,32,11.80
2010,10,02,06,33,11.80
2010,10,02,06,34,11.80
2010,10,02,06,35,11.80
2010,10,02,06,36,11.80
2010,10,02,06,37,11.80
2010,10,02,06,38,11.80
2010,10,02,06,39,11.80
2010,10,02,06,40,11.70
2010,10,02,06,41,11.70
2010,10,02,06,42,11.70
2010,10,02,06,43,11.70
2010,10,02,06,44,11.70
2010,10,02,06,45,11.70
2010,10,02,06,46,11.70
2010,10,02,06,47,11.70
2010,10,02,06,48,11.60
2010,10,02,06,49,11.60
2010,10,02,06,50,11.60
2010,10,02,06,51,11.60
2010,10,02,06,52,11.60
2010,10,02,06,53,11.60
2010,10,02,06,54,11.60
2010,10,02,06,55,11.60
2010,10,02,06,56,11.60
2010,10,02,06,57,11.60
2010,10,02,06,58,11.60
2010,10,02,06,59,11.60
2010,10,02,07,00,11.60
2010,10,02,07,01,11.60
2010,10,02,07,02,11.60
2010,10,02,07,03,11.70
2010,10,02,07,04,11.70
2010,10,02,07,05,11.80
2010,10,02,07,06,11.80
2010,10,02,07,07,11.90
2010,10,02,07,08,11.90
2010,10,02,07,09,11.90
2010,10,02,07,10,12.00
2010,10,02,07,11,12.00
2010,10,02,07,12,12.00
2010,10,02,07,13,12.10
2010,10,02,07,14,12.10
2010,10,02,07,15,12.10
2010,10,02,07,16,12.00
2010,10,02,07,17,12.00
2010,10,02,07,18,11.90
2010,10,02,07,19,11.90
2010,10,02,07,20,11.90
2010,10,02,07,21,11.80
2010,10,02,07,22,11.80
2010,10,02,07,23,11.70
2010,10,02,07,24,11.60
2010,10,02,07,25,11.60
2010,10,02,07,26,11.50
2010,10,02,07,27,11.40
2010,10,02,07,28,11.40
2010,10,02,07,29,11.30
2010,10,02,07,30,11.30
2010,10,02,07,31,11.20
2010,10,02,07,32,11.20
2010,10,02,07,33,11.10
2010,10,02,07,34,11.10
2010,10,02,07,35,11.10
2010,10,02,07,36,11.10
2010,10,02,07,37,11.10
2010,10,02,07,38,11.10
2010,10,02,07,39,11.00
2010,10,02,07,40,10.90
2010,10,02,07,41,10.90
2010,10,02,07,42,10.90
2010,10,02,07,43,10.90
2010,10,02,07,44,10.90
2010,10,02,07,45,10.90
2010,10,02,07,46,10.90
2010,10,02,07,47,10.90
2010,10,02,07,48,10.90
2010,10,02,07,49,10.90
2010,10,02,07,50,10.90
2010,10,02,07,51,10.90
2010,10,02,07,52,10.90
2010,10,02,07,53,10.90
2010,10,02,07,54,10.80
2010,10,02,07,55,10.80
2010,10,02,07,56,10.80
2010,10,02,07,57,10.80
2010,10,02,07,58,10.80
2010,10,02,07,59,10.80
2010,10,02,08,00,10.70
2010,10,02,08,01,10.70
2010,10,02,08,02,10.70
2010,10,02,08,03,10.70
2010,10,02,08,04,10.70
2010,10,02,08,05,10.70
2010,10,02,08,06,10.60
2010,10,02,08,07,10.60
2010,10,02,08,08,10.60
2010,10,02,08,09,10.60
2010,10,02,08,10,10.60
2010,10,02,08,11,10.60
2010,10,02,08,12,10.60
2010,10,02,08,13,10.60
2010,10,02,08,14,10.60
2010,10,02,08,15,10.60
2010,10,02,08,16,10.70
2010,10,02,08,17,10.70
2010,10,02,08,18,10.70
2010,10,02,08,19,10.80
2010,10,02,08,20,10.80
2010,10,02,08,21,10.90
2010,10,02,08,22,10.90
2010,10,02,08,23,10.90
2010,10,02,08,24,11.00
2010,10,02,08,25,11.10
2010,10,02,08,26,11.10
2010,10,02,08,27,11.10
2010,10,02,08,28,11.20
2010,10,02,08,29,11.30
2010,10,02,08,30,11.30
2010,10,02,08,31,11.40
2010,10,02,08,32,11.40
2010,10,02,08,33,11.40
2010,10,02,08,34,11.50
2010,10,02,08,35,11.60
2010,10,02,08,36,11.60
2010,10,02,08,37,11.70
2010,10,02,08,38,11.70
2010,10,02,08,39,11.80
2010,10,02,08,40,11.80
2010,10,02,08,41,11.80
2010,10,02,08,42,11.90
2010,10,02,08,43,11.90
2010,10,02,08,44,12.00
2010,10,02,08,45,12.00
2010,10,02,08,46,12.10
2010,10,02,08,47,12.10
2010,10,02,08,48,12.20
2010,10,02,08,49,12.30
2010,10,02,08,50,12.30
2010,10,02,08,51,12.30
2010,10,02,08,52,12.40
2010,10,02,08,53,12.50
2010,10,02,08,54,12.50
2010,10,02,08,55,12.60
2010,10,02,08,56,12.70
2010,10,02,08,57,12.70
2010,10,02,08,58,12.80
2010,10,02,08,59,12.80
2010,10,02,09,00,12.90
2010,10,02,09,01,12.90
2010,10,02,09,02,13.00
2010,10,02,09,03,13.00
2010,10,02,09,04,13.10
2010,10,02,09,05,13.20
2010,10,02,09,06,13.20
2010,10,02,09,07,13.30
2010,10,02,09,08,13.30
2010,10,02,09,09,13.40
2010,10,02,09,10,13.50
2010,10,02,09,11,13.50
2010,10,02,09,12,13.60
2010,10,02,09,13,13.70
2010,10,02,09,14,13.70
2010,10,02,09,15,13.80
2010,10,02,09,16,13.90
2010,10,02,09,17,13.90
2010,10,02,09,18,14.00
2010,10,02,09,19,14.00
2010,10,02,09,20,14.10
2010,10,02,09,21,14.10
2010,10,02,09,22,14.10
2010,10,02,09,23,14.20
2010,10,02,09,24,14.20
2010,10,02,09,25,14.20
2010,10,02,09,26,14.20
2010,10,02,09,27,14.20
2010,10,02,09,28,14.30
2010,10,02,09,29,14.40
2010,10,02,09,30,14.40
2010,10,02,09,31,14.50
2010,10,02,09,32,14.50
2010,10,02,09,33,14.60
2010,10,02,09,34,14.60
2010,10,02,09,35,14.60
2010,10,02,09,36,14.60
2010,10,02,09,37,14.60
2010,10,02,09,38,14.50
2010,10,02,09,39,14.50
2010,10,02,09,40,14.40
2010,10,02,09,41,14.30
2010,10,02,09,42,14.30
2010,10,02,09,43,14.20
2010,10,02,09,44,14.20
2010,10,02,09,45,14.20
2010,10,02,09,46,14.30
2010,10,02,09,47,14.30
2010,10,02,09,48,14.30
2010,10,02,09,49,14.40
2010,10,02,09,50,14.50
2010,10,02,09,51,14.50
2010,10,02,09,52,14.60
2010,10,02,09,53,14.70
2010,10,02,09,54,14.80
2010,10,02,09,55,14.80
2010,10,02,09,56,14.80
2010,10,02,09,57,14.80
2010,10,02,09,58,14.80
2010,10,02,09,59,14.80
2010,10,02,10,00,14.80
2010,10,02,10,01,14.80
2010,10,02,10,02,14.80
2010,10,02,10,03,14.80
2010,10,02,10,04,14.90
2010,10,02,10,05,14.90
2010,10,02,10,06,14.90
2010,10,02,10,07,14.90
2010,10,02,10,08,14.90
2010,10,02,10,09,15.00
2010,10,02,10,10,15.00
2010,10,02,10,11,15.00
2010,10,02,10,12,15.10
2010,10,02,10,13,15.10
2010,10,02,10,14,15.10
2010,10,02,10,15,15.10
2010,10,02,10,16,15.10
2010,10,02,10,17,15.10
2010,10,02,10,18,15.10
2010,10,02,10,19,15.20
2010,10,02,10,20,15.30
2010,10,02,10,21,15.40
2010,10,02,10,22,15.40
2010,10,02,10,23,15.50
2010,10,02,10,24,15.50
2010,10,02,10,25,15.50
2010,10,02,10,26,15.40
2010,10,02,10,27,15.40
2010,10,02,10,28,15.40
2010,10,02,10,29,15.30
2010,10,02,10,30,15.30
2010,10,02,10,31,15.30
2010,10,02,10,32,15.30
2010,10,02,10,33,15.30
2010,10,02,10,34,15.40
2010,10,02,10,35,15.50
2010,10,02,10,36,15.50
2010,10,02,10,37,15.60
2010,10,02,10,38,15.60
2010,10,02,10,39,15.50
2010,10,02,10,40,15.50
2010,10,02,10,41,15.40
2010,10,02,10,42,15.40
2010,10,02,10,43,15.40
2010,10,02,10,44,15.40
2010,10,02,10,45,15.40
2010,10,02,10,46,15.50
2010,10,02,10,47,15.50
2010,10,02,10,48,15.60
2010,10,02,10,49,15.60
2010,10,02,10,50,15.70
2010,10,02,10,51,15.70
2010,10,02,10,52,15.80
2010,10,02,10,53,15.80
2010,10,02,10,54,15.80
2010,10,02,10,55,15.80
2010,10,02,10,56,15.80
2010,10,02,10,57,15.80
2010,10,02,10,58,15.80
2010,10,02,10,59,15.80
2010,10,02,11,00,15.70
2010,10,02,11,01,15.70
2010,10,02,11,02,15.70
2010,10,02,11,03,15.80
2010,10,02,11,04,15.80
2010,10,02,11,05,15.70
2010,10,02,11,06,15.60
2010,10,02,11,07,15.60
2010,10,02,11,08,15.60
2010,10,02,11,09,15.60
2010,10,02,11,10,15.70
2010,10,02,11,11,15.70
2010,10,02,11,12,15.80
2010,10,02,11,13,15.90
2010,10,02,11,14,15.90
2010,10,02,11,15,15.80
2010,10,02,11,16,15.80
2010,10,02,11,17,15.80
2010,10,02,11,18,15.80
2010,10,02,11,19,15.80
2010,10,02,11,20,15.80
2010,10,02,11,21,15.80
2010,10,02,11,22,15.80
2010,10,02,11,23,15.80
2010,10,02,11,24,15.70
2010,10,02,11,25,15.70
2010,10,02,11,26,15.70
2010,10,02,11,27,15.80
2010,10,02,11,28,15.70
2010,10,02,11,29,15.70
2010,10,02,11,30,15.70
2010,10,02,11,31,15.80
2010,10,02,11,32,15.80
2010,10,02,11,33,15.80
2010,10,02,11,34,15.80
2010,10,02,11,35,15.80
2010,10,02,11,36,15.80
2010,10,02,11,37,15.80
2010,10,02,11,38,15.80
2010,10,02,11,39,15.80
2010,10,02,11,40,15.80
2010,10,02,11,41,15.80
2010,10,02,11,42,15.80
2010,10,02,11,43,15.80
2010,10,02,11,44,15.90
2010,10,02,11,45,15.90
2010,10,02,11,46,15.90
2010,10,02,11,47,15.90
2010,10,02,11,48,15.90
2010,10,02,11,49,16.00
2010,10,02,11,50,15.90
2010,10,02,11,51,15.90
2010,10,02,11,52,15.80
2010,10,02,11,53,15.80
2010,10,02,11,54,15.80
2010,10,02,11,55,15.80
2010,10,02,11,56,15.80
2010,10,02,11,57,15.80
2010,10,02,11,58,15.80
2010,10,02,11,59,15.80
2010,10,02,12,00,15.80
2010,10,02,12,01,15.70
2010,10,02,12,02,15.70
2010,10,02,12,03,15.60
2010,10,02,12,04,15.60
2010,10,02,12,05,15.70
2010,10,02,12,06,15.70
2010,10,02,12,07,15.80
2010,10,02,12,08,15.70
2010,10,02,12,09,15.70
2010,10,02,12,10,15.60
2010,10,02,12,11,15.60
2010,10,02,12,12,15.70
2010,10,02,12,13,15.70
2010,10,02,12,14,15.70
2010,10,02,12,15,15.80
2010,10,02,12,16,15.80
2010,10,02,12,17,15.90
2010,10,02,12,18,16.00
2010,10,02,12,19,16.10
2010,10,02,12,20,16.20
2010,10,02,12,21,16.10
2010,10,02,12,22,16.10
2010,10,02,12,23,16.10
2010,10,02,12,24,16.10
2010,10,02,12,25,16.10
2010,10,02,12,26,16.10
2010,10,02,12,27,16.00
2010,10,02,12,28,15.90
2010,10,02,12,29,16.00
2010,10,02,12,30,16.10
2010,10,02,12,31,16.10
2010,10,02,12,32,16.10
2010,10,02,12,33,16.10
2010,10,02,12,34,16.00
2010,10,02,12,35,15.90
2010,10,02,12,36,15.90
2010,10,02,12,37,15.80
2010,10,02,12,38,15.90
2010,10,02,12,39,16.00
2010,10,02,12,40,16.10
2010,10,02,12,41,16.20
2010,10,02,12,42,16.20
2010,10,02,12,43,16.20
2010,10,02,12,44,16.20
2010,10,02,12,45,16.10
2010,10,02,12,46,16.10
2010,10,02,12,47,16.10
2010,10,02,12,48,16.10
2010,10,02,12,49,16.10
2010,10,02,12,50,16.10
2010,10,02,12,51,16.20
2010,10,02,12,52,16.20
2010,10,02,12,53,16.30
2010,10,02,12,54,16.30
2010,10,02,12,55,16.40
2010,10,02,12,56,16.40
2010,10,02,12,57,16.40
2010,10,02,12,58,16.30
2010,10,02,12,59,16.40
2010,10,02,13,00,16.40
2010,10,02,13,01,16.40
2010,10,02,13,02,16.60
2010,10,02,13,03,16.40
2010,10,02,13,04,16.40
2010,10,02,13,05,16.40
2010,10,02,13,06,16.40
2010,10,02,13,07,16.40
2010,10,02,13,08,16.40
2010,10,02,13,09,16.40
2010,10,02,13,10,16.40
2010,10,02,13,11,16.40
2010,10,02,13,12,16.50
2010,10,02,13,13,16.60
2010,10,02,13,14,16.70
2010,10,02,13,15,16.70
2010,10,02,13,16,16.80
2010,10,02,13,17,16.80
2010,10,02,13,18,16.80
2010,10,02,13,19,16.70
2010,10,02,13,20,16.60
2010,10,02,13,21,16.40
2010,10,02,13,22,16.60
2010,10,02,13,23,16.60
2010,10,02,13,24,16.60
2010,10,02,13,25,16.70
2010,10,02,13,26,16.60
2010,10,02,13,27,16.60
2010,10,02,13,28,16.70
2010,10,02,13,29,16.80
2010,10,02,13,30,16.90
2010,10,02,13,31,16.90
2010,10,02,13,32,17.00
2010,10,02,13,33,17.00
2010,10,02,13,34,17.00
2010,10,02,13,35,17.00
2010,10,02,13,36,17.00
2010,10,02,13,37,17.10
2010,10,02,13,38,17.20
2010,10,02,13,39,17.30
2010,10,02,13,40,17.30
2010,10,02,13,41,17.30
2010,10,02,13,42,17.30
2010,10,02,13,43,17.30
2010,10,02,13,44,17.30
2010,10,02,13,45,17.30
2010,10,02,13,46,17.20
2010,10,02,13,47,17.20
2010,10,02,13,48,17.20
2010,10,02,13,49,17.10
2010,10,02,13,50,17.20
2010,10,02,13,51,17.20
2010,10,02,13,52,17.20
2010,10,02,13,53,17.10
2010,10,02,13,54,17.10
2010,10,02,13,55,17.10
2010,10,02,13,56,17.10
2010,10,02,13,57,17.20
2010,10,02,13,58,17.20
2010,10,02,13,59,17.20
2010,10,02,14,00,17.20
2010,10,02,14,01,17.20
2010,10,02,14,02,17.10
2010,10,02,14,03,17.10
2010,10,02,14,04,17.00
2010,10,02,14,05,17.00
2010,10,02,14,06,17.00
2010,10,02,14,07,16.90
2010,10,02,14,08,17.00
2010,10,02,14,09,17.10
2010,10,02,14,10,17.10
2010,10,02,14,11,17.20
2010,10,02,14,12,17.20
2010,10,02,14,13,17.20
2010,10,02,14,14,17.30
2010,10,02,14,15,17.30
2010,10,02,14,16,17.30
2010,10,02,14,17,17.40
2010,10,02,14,18,17.40
2010,10,02,14,19,17.50
2010,10,02,14,20,17.60
2010,10,02,14,21,17.60
2010,10,02,14,22,17.70
2010,10,02,14,23,17.70
2010,10,02,14,24,17.70
2010,10,02,14,25,17.70
2010,10,02,14,26,17.70
2010,10,02,14,27,17.80
2010,10,02,14,28,17.90
2010,10,02,14,29,18.00
2010,10,02,14,30,18.10
2010,10,02,14,31,18.20
2010,10,02,14,32,18.20
2010,10,02,14,33,18.20
2010,10,02,14,34,18.20
2010,10,02,14,35,18.20
2010,10,02,14,36,18.10
2010,10,02,14,37,18.00
2010,10,02,14,38,17.90
2010,10,02,14,39,17.90
2010,10,02,14,40,18.00
2010,10,02,14,41,18.10
2010,10,02,14,42,18.10
2010,10,02,14,43,18.20
2010,10,02,14,44,18.20
2010,10,02,14,45,18.30
2010,10,02,14,46,18.10
2010,10,02,14,47,18.20
2010,10,02,14,48,18.20
2010,10,02,14,49,18.30
2010,10,02,14,50,18.20
2010,10,02,14,51,17.90
2010,10,02,14,52,17.90
2010,10,02,14,53,17.90
2010,10,02,14,54,18.00
2010,10,02,14,55,18.00
2010,10,02,14,56,17.90
2010,10,02,14,57,17.90
2010,10,02,14,58,17.90
2010,10,02,14,59,17.80
2010,10,02,15,00,17.90
2010,10,02,15,01,18.10
2010,10,02,15,02,18.20
2010,10,02,15,03,18.40
2010,10,02,15,04,18.40
2010,10,02,15,05,18.50
2010,10,02,15,06,18.60
2010,10,02,15,07,18.70
2010,10,02,15,08,18.70
2010,10,02,15,09,18.80
2010,10,02,15,10,18.70
2010,10,02,15,11,18.50
2010,10,02,15,12,18.40
2010,10,02,15,13,18.20
2010,10,02,15,14,18.10
2010,10,02,15,15,17.90
2010,10,02,15,16,18.00
2010,10,02,15,17,18.00
2010,10,02,15,18,18.00
2010,10,02,15,19,18.10
2010,10,02,15,20,18.20
2010,10,02,15,21,18.20
2010,10,02,15,22,18.20
2010,10,02,15,23,18.20
2010,10,02,15,24,18.10
2010,10,02,15,25,18.10
2010,10,02,15,26,18.20
2010,10,02,15,27,18.20
2010,10,02,15,28,18.30
2010,10,02,15,29,18.40
2010,10,02,15,30,18.40
2010,10,02,15,31,18.40
2010,10,02,15,32,18.50
2010,10,02,15,33,18.50
2010,10,02,15,34,18.50
2010,10,02,15,35,18.50
2010,10,02,15,36,18.50
2010,10,02,15,37,18.40
2010,10,02,15,38,18.30
2010,10,02,15,39,18.30
2010,10,02,15,40,18.40
2010,10,02,15,41,18.20
2010,10,02,15,42,18.20
2010,10,02,15,43,18.20
2010,10,02,15,44,18.20
2010,10,02,15,45,18.10
2010,10,02,15,46,18.00
2010,10,02,15,47,17.90
2010,10,02,15,48,17.70
2010,10,02,15,49,17.50
2010,10,02,15,50,17.50
2010,10,02,15,51,17.40
2010,10,02,15,52,17.30
2010,10,02,15,53,17.30
2010,10,02,15,54,17.30
2010,10,02,15,55,17.20
2010,10,02,15,56,17.10
2010,10,02,15,57,17.00
2010,10,02,15,58,17.00
2010,10,02,15,59,16.90
2010,10,02,16,00,16.80
2010,10,02,16,01,16.80
2010,10,02,16,02,16.70
2010,10,02,16,03,16.80
2010,10,02,16,04,16.80
2010,10,02,16,05,16.70
2010,10,02,16,06,16.70
2010,10,02,16,07,16.60
2010,10,02,16,08,16.50
2010,10,02,16,09,16.40
2010,10,02,16,10,16.40
2010,10,02,16,11,16.30
2010,10,02,16,12,16.30
2010,10,02,16,13,16.20
2010,10,02,16,14,16.20
2010,10,02,16,15,16.10
2010,10,02,16,16,16.10
2010,10,02,16,17,16.10
2010,10,02,16,18,16.10
2010,10,02,16,19,16.10
2010,10,02,16,20,16.10
2010,10,02,16,21,16.10
2010,10,02,16,22,16.20
2010,10,02,16,23,16.10
2010,10,02,16,24,16.00
2010,10,02,16,25,15.80
2010,10,02,16,26,15.70
2010,10,02,16,27,15.60
2010,10,02,16,28,15.50
2010,10,02,16,29,15.60
2010,10,02,16,30,15.60
2010,10,02,16,31,15.50
2010,10,02,16,32,15.50
2010,10,02,16,33,15.40
2010,10,02,16,34,15.00
2010,10,02,16,35,14.80
2010,10,02,16,36,14.60
2010,10,02,16,37,14.50
2010,10,02,16,38,14.60
2010,10,02,16,39,14.60
2010,10,02,16,40,14.50
2010,10,02,16,41,14.40
2010,10,02,16,42,14.40
2010,10,02,16,43,14.40
2010,10,02,16,44,14.50
2010,10,02,16,45,14.60
2010,10,02,16,46,14.60
2010,10,02,16,47,14.50
2010,10,02,16,48,14.30
2010,10,02,16,49,14.20
2010,10,02,16,50,14.10
2010,10,02,16,51,14.10
2010,10,02,16,52,14.20
2010,10,02,16,53,14.20
2010,10,02,16,54,14.20
2010,10,02,16,55,14.20
2010,10,02,16,56,14.30
2010,10,02,16,57,14.40
2010,10,02,16,58,14.60
2010,10,02,16,59,14.70
2010,10,02,17,00,14.80
2010,10,02,17,01,15.00
2010,10,02,17,02,15.10
2010,10,02,17,03,15.30
2010,10,02,17,04,15.30
2010,10,02,17,05,15.20
2010,10,02,17,06,15.10
2010,10,02,17,07,15.10
2010,10,02,17,08,15.20
2010,10,02,17,09,15.30
2010,10,02,17,10,15.20
2010,10,02,17,11,15.10
2010,10,02,17,12,14.80
2010,10,02,17,13,14.50
2010,10,02,17,14,14.40
2010,10,02,17,15,14.20
2010,10,02,17,16,14.20
2010,10,02,17,17,14.10
2010,10,02,17,18,14.10
2010,10,02,17,19,14.00